Time,TemperatureF,DewpointF,PressureIn,WindDirection,WindDirectionDegrees,WindSpeedMPH,WindSpeedGustMPH,Humidity,HourlyPrecipIn,Conditions,Clouds,dailyrainin,SoftwareType,DateUTC
2013-02-01 00:01:00,24.0,18.0,30.04,NNW,342,0.0,3.0,78,0.00,,,0.02,,2013-02-01 07:01:00,
2013-02-01 00:12:00,24.0,18.0,30.04,NNW,342,0.0,3.0,78,0.00,,,0.02,,2013-02-01 07:12:00,
2013-02-01 00:22:00,24.0,18.0,30.05,NNW,342,0.0,3.0,77,0.00,,,0.02,,2013-02-01 07:22:00,
2013-02-01 00:32:00,24.0,17.0,30.05,NNW,343,0.0,3.0,75,0.00,,,0.02,,2013-02-01 07:32:00,
2013-02-01 00:42:00,24.0,17.0,30.05,NNW,343,0.0,3.0,75,0.00,,,0.02,,2013-02-01 07:42:00,
2013-02-01 00:52:00,25.0,18.0,30.04,North,351,0.0,3.0,75,0.00,,,0.02,,2013-02-01 07:52:00,
2013-02-01 01:01:00,24.0,17.0,30.04,North,350,0.0,2.0,75,0.00,,,0.02,,2013-02-01 08:01:00,
2013-02-01 01:11:00,24.0,17.0,30.04,North,350,0.0,2.0,75,0.00,,,0.02,,2013-02-01 08:11:00,
2013-02-01 01:21:00,23.0,17.0,30.02,North,350,0.0,2.0,77,0.00,,,0.02,,2013-02-01 08:21:00,
2013-02-01 01:31:00,22.0,16.0,30.02,North,350,1.0,3.0,77,0.00,,,0.02,,2013-02-01 08:31:00,
2013-02-01 01:42:00,22.0,16.0,30.02,North,350,1.0,3.0,77,0.00,,,0.02,,2013-02-01 08:42:00,
2013-02-01 01:52:00,23.0,17.0,30.01,West,280,3.0,7.0,77,0.00,,,0.02,,2013-02-01 08:52:00,
2013-02-01 02:01:00,23.0,17.0,30.01,West,276,2.0,7.0,76,0.00,,,0.02,,2013-02-01 09:01:00,
2013-02-01 02:11:00,23.0,17.0,30.01,West,276,2.0,7.0,76,0.00,,,0.02,,2013-02-01 09:11:00,
2013-02-01 02:21:00,25.0,18.0,30.03,West,279,0.0,4.0,73,0.00,,,0.02,,2013-02-01 09:21:00,
2013-02-01 02:32:00,25.0,18.0,30.01,West,280,0.0,10.0,75,0.00,,,0.02,,2013-02-01 09:32:00,
2013-02-01 02:41:00,25.0,18.0,30.01,West,280,0.0,10.0,75,0.00,,,0.02,,2013-02-01 09:41:00,
2013-02-01 02:52:00,24.0,18.0,30.01,West,279,2.0,2.0,77,0.00,,,0.02,,2013-02-01 09:52:00,
2013-02-01 03:01:00,24.0,18.0,30.01,West,279,0.0,2.0,78,0.00,,,0.02,,2013-02-01 10:01:00,
2013-02-01 03:11:00,24.0,18.0,30.01,West,279,0.0,2.0,78,0.00,,,0.02,,2013-02-01 10:11:00,
2013-02-01 03:21:00,24.0,18.0,30.01,WNW,283,0.0,5.0,76,0.00,,,0.02,,2013-02-01 10:21:00,
2013-02-01 03:31:00,25.0,17.0,30.01,SSW,205,0.0,10.0,72,0.00,,,0.02,,2013-02-01 10:31:00,
2013-02-01 03:42:00,25.0,17.0,30.01,SSW,205,0.0,10.0,72,0.00,,,0.02,,2013-02-01 10:42:00,
2013-02-01 03:53:00,25.0,16.0,30.01,SSW,204,1.0,3.0,69,0.00,,,0.02,,2013-02-01 10:53:00,
2013-02-01 04:02:00,25.0,17.0,30.01,SSW,204,0.0,3.0,70,0.00,,,0.02,,2013-02-01 11:02:00,
2013-02-01 04:11:00,25.0,17.0,30.01,SSW,204,0.0,3.0,70,0.00,,,0.02,,2013-02-01 11:11:00,
2013-02-01 04:22:00,26.0,18.0,30.01,SSW,204,1.0,5.0,70,0.00,,,0.02,,2013-02-01 11:22:00,
2013-02-01 04:32:00,26.0,16.0,30.00,SSW,210,1.0,4.0,66,0.00,,,0.02,,2013-02-01 11:32:00,
2013-02-01 04:42:00,26.0,16.0,30.00,SSW,210,1.0,4.0,66,0.00,,,0.02,,2013-02-01 11:42:00,
2013-02-01 04:53:00,25.0,15.0,30.00,SSW,213,3.0,4.0,66,0.00,,,0.02,,2013-02-01 11:53:00,
2013-02-01 05:02:00,27.0,16.0,30.01,NNE,21,2.0,5.0,63,0.00,,,0.02,,2013-02-01 12:02:00,
2013-02-01 05:12:00,27.0,16.0,30.01,NNE,21,2.0,5.0,63,0.00,,,0.02,,2013-02-01 12:12:00,
2013-02-01 05:22:00,26.0,16.0,30.00,NNE,21,1.0,2.0,65,0.00,,,0.02,,2013-02-01 12:22:00,
2013-02-01 05:32:00,25.0,16.0,30.00,NNE,21,0.0,3.0,68,0.00,,,0.02,,2013-02-01 12:32:00,
2013-02-01 05:42:00,25.0,16.0,30.00,NNE,21,0.0,3.0,68,0.00,,,0.02,,2013-02-01 12:42:00,
2013-02-01 05:52:00,24.0,15.0,30.00,NNE,21,1.0,3.0,69,0.00,,,0.02,,2013-02-01 12:52:00,
2013-02-01 06:02:00,24.0,16.0,30.00,NNE,22,0.0,3.0,72,0.00,,,0.02,,2013-02-01 13:02:00,
2013-02-01 06:11:00,24.0,16.0,30.00,NNE,22,0.0,3.0,72,0.00,,,0.02,,2013-02-01 13:11:00,
2013-02-01 06:22:00,24.0,16.0,30.00,NNE,21,0.0,2.0,71,0.00,,,0.02,,2013-02-01 13:22:00,
2013-02-01 06:32:00,24.0,16.0,30.00,NNE,21,2.0,3.0,72,0.00,,,0.02,,2013-02-01 13:32:00,
2013-02-01 06:42:00,24.0,16.0,30.00,NNE,21,2.0,3.0,72,0.00,,,0.02,,2013-02-01 13:42:00,
2013-02-01 06:53:00,24.0,17.0,30.00,NNE,21,1.0,3.0,74,0.00,,,0.02,,2013-02-01 13:53:00,
2013-02-01 07:03:00,24.0,17.0,30.00,NNE,21,0.0,3.0,74,0.00,,,0.02,,2013-02-01 14:03:00,
2013-02-01 07:11:00,24.0,17.0,30.00,NNE,21,0.0,3.0,74,0.00,,,0.02,,2013-02-01 14:11:00,
2013-02-01 07:21:00,25.0,16.0,30.00,NNE,21,1.0,5.0,69,0.00,,,0.02,,2013-02-01 14:21:00,
2013-02-01 07:32:00,25.0,16.0,30.00,NNE,21,0.0,5.0,69,0.00,,,0.02,,2013-02-01 14:32:00,
2013-02-01 07:42:00,25.0,16.0,30.00,NNE,21,0.0,5.0,69,0.00,,,0.02,,2013-02-01 14:42:00,
2013-02-01 07:53:00,25.0,17.0,30.01,NNE,22,0.0,4.0,71,0.00,,,0.02,,2013-02-01 14:53:00,
2013-02-01 08:02:00,25.0,17.0,30.02,NNE,21,0.0,3.0,70,0.00,,,0.02,,2013-02-01 15:02:00,
2013-02-01 08:12:00,25.0,17.0,30.02,NNE,20,2.0,3.0,70,0.00,,,0.02,,2013-02-01 15:12:00,
2013-02-01 08:22:00,25.0,17.0,30.02,NNE,20,2.0,3.0,70,0.00,,,0.02,,2013-02-01 15:22:00,
2013-02-01 08:33:00,25.0,17.0,30.03,NNE,21,2.0,2.0,70,0.00,,,0.02,,2013-02-01 15:33:00,
2013-02-01 08:42:00,25.0,17.0,30.03,NNE,21,2.0,2.0,70,0.00,,,0.02,,2013-02-01 15:42:00,
2013-02-01 08:52:00,27.0,18.0,30.02,NNE,21,0.0,2.0,67,0.00,,,0.02,,2013-02-01 15:52:00,
2013-02-01 09:03:00,28.0,18.0,30.01,NNE,21,1.0,3.0,65,0.00,,,0.02,,2013-02-01 16:03:00,
2013-02-01 09:11:00,29.0,18.0,30.01,NNE,21,0.0,1.0,63,0.00,,,0.02,,2013-02-01 16:11:00,
2013-02-01 09:22:00,29.0,18.0,30.01,NNE,21,0.0,1.0,63,0.00,,,0.02,,2013-02-01 16:22:00,
2013-02-01 09:33:00,33.0,19.0,30.01,NNE,22,3.0,7.0,57,0.00,,,0.02,,2013-02-01 16:33:00,
2013-02-01 09:42:00,33.0,20.0,30.02,NNE,21,1.0,5.0,58,0.00,,,0.02,,2013-02-01 16:42:00,
2013-02-01 09:52:00,33.0,20.0,30.02,NNE,21,1.0,5.0,58,0.00,,,0.02,,2013-02-01 16:52:00,
2013-02-01 10:02:00,34.0,20.0,30.01,NNE,19,1.0,4.0,56,0.00,,,0.02,,2013-02-01 17:02:00,
2013-02-01 10:11:00,34.0,20.0,30.01,NNE,19,1.0,4.0,56,0.00,,,0.02,,2013-02-01 17:11:00,
2013-02-01 10:22:00,35.0,19.0,30.00,NNE,18,1.0,7.0,52,0.00,,,0.02,,2013-02-01 17:22:00,
2013-02-01 10:32:00,36.0,20.0,30.00,NNE,18,1.0,3.0,51,0.00,,,0.02,,2013-02-01 17:32:00,
2013-02-01 10:42:00,36.0,20.0,30.00,NNE,18,1.0,3.0,51,0.00,,,0.02,,2013-02-01 17:42:00,
2013-02-01 10:53:00,38.0,20.0,29.99,NNE,23,2.0,6.0,47,0.00,,,0.02,,2013-02-01 17:53:00,
2013-02-01 11:02:00,41.0,17.0,29.98,NNW,348,9.0,10.0,38,0.00,,,0.01,,2013-02-01 18:02:00,
2013-02-01 11:12:00,41.0,17.0,29.98,NNW,348,9.0,10.0,38,0.00,,,0.01,,2013-02-01 18:12:00,
2013-02-01 11:22:00,42.0,15.0,29.99,WSW,245,0.0,10.0,33,0.00,,,0.01,,2013-02-01 18:22:00,
2013-02-01 11:32:00,43.0,20.0,30.00,North,6,3.0,16.0,40,0.00,,,0.01,,2013-02-01 18:32:00,
2013-02-01 11:42:00,43.0,20.0,30.00,North,6,3.0,16.0,40,0.00,,,0.01,,2013-02-01 18:42:00,
2013-02-01 11:53:00,42.0,19.0,30.00,NE,48,3.0,9.0,39,0.00,,,0.01,,2013-02-01 18:53:00,
2013-02-01 12:02:00,43.0,18.0,30.00,WNW,286,5.0,23.0,36,0.00,,,0.01,,2013-02-01 19:02:00,
2013-02-01 12:11:00,43.0,18.0,30.00,WNW,286,5.0,23.0,36,0.00,,,0.01,,2013-02-01 19:11:00,
2013-02-01 12:21:00,45.0,15.0,29.98,NW,313,2.0,16.0,30,0.00,,,0.01,,2013-02-01 19:21:00,
2013-02-01 12:32:00,46.0,15.0,29.96,WNW,287,4.0,13.0,28,0.00,,,0.01,,2013-02-01 19:32:00,
2013-02-01 12:41:00,46.0,15.0,29.96,WNW,287,4.0,13.0,28,0.00,,,0.01,,2013-02-01 19:41:00,
2013-02-01 12:52:00,46.0,15.0,29.97,NNW,333,3.0,17.0,28,0.00,,,0.01,,2013-02-01 19:52:00,
2013-02-01 13:02:00,47.0,12.0,29.96,NW,322,19.0,19.0,24,0.00,,,0.00,,2013-02-01 20:02:00,
2013-02-01 13:11:00,47.0,12.0,29.96,NW,322,19.0,19.0,24,0.00,,,0.00,,2013-02-01 20:11:00,
2013-02-01 13:21:00,47.0,12.0,29.96,WSW,255,11.0,16.0,24,0.00,,,0.00,,2013-02-01 20:21:00,
2013-02-01 13:31:00,47.0,11.0,29.96,WNW,291,10.0,17.0,23,0.00,,,0.00,,2013-02-01 20:31:00,
2013-02-01 13:52:00,46.0,12.0,29.96,West,275,12.0,16.0,25,0.00,,,0.00,,2013-02-01 20:52:00,
2013-02-01 14:02:00,46.0,11.0,29.96,WNW,301,10.0,16.0,24,0.00,,,0.00,,2013-02-01 21:02:00,
2013-02-01 14:12:00,46.0,11.0,29.96,WNW,301,10.0,16.0,24,0.00,,,0.00,,2013-02-01 21:12:00,
2013-02-01 14:21:00,46.0,11.0,29.97,WNW,287,14.0,17.0,24,0.00,,,0.00,,2013-02-01 21:21:00,
2013-02-01 14:32:00,46.0,11.0,29.98,NW,319,6.0,20.0,24,0.00,,,0.00,,2013-02-01 21:32:00,
2013-02-01 14:41:00,46.0,11.0,29.98,NW,319,6.0,20.0,24,0.00,,,0.00,,2013-02-01 21:41:00,
2013-02-01 14:52:00,46.0,10.0,29.97,West,273,10.0,23.0,23,0.00,,,0.00,,2013-02-01 21:52:00,
2013-02-01 15:02:00,45.0,10.0,29.98,WNW,298,7.0,19.0,24,0.00,,,0.00,,2013-02-01 22:02:00,
2013-02-01 15:11:00,45.0,10.0,29.98,WNW,298,7.0,19.0,24,0.00,,,0.00,,2013-02-01 22:11:00,
2013-02-01 15:21:00,45.0,10.0,29.98,WNW,283,9.0,18.0,24,0.00,,,0.00,,2013-02-01 22:21:00,
2013-02-01 15:32:00,44.0,10.0,30.01,WNW,290,7.0,20.0,24,0.00,,,0.00,,2013-02-01 22:32:00,
2013-02-01 15:42:00,44.0,10.0,30.01,WNW,290,7.0,20.0,24,0.00,,,0.00,,2013-02-01 22:42:00,
2013-02-01 15:52:00,44.0,10.0,30.01,WNW,283,10.0,18.0,24,0.00,,,0.00,,2013-02-01 22:52:00,
2013-02-01 16:01:00,43.0,10.0,30.00,WNW,294,9.0,12.0,26,0.00,,,0.00,,2013-02-01 23:01:00,
2013-02-01 16:11:00,43.0,10.0,30.00,WNW,294,9.0,12.0,26,0.00,,,0.00,,2013-02-01 23:11:00,
2013-02-01 16:21:00,43.0,10.0,30.00,WNW,301,7.0,12.0,26,0.00,,,0.00,,2013-02-01 23:21:00,
2013-02-01 16:31:00,43.0,10.0,30.00,WNW,296,4.0,16.0,25,0.00,,,0.00,,2013-02-01 23:31:00,
2013-02-01 16:41:00,43.0,10.0,30.00,WNW,296,4.0,16.0,25,0.00,,,0.00,,2013-02-01 23:41:00,
2013-02-01 16:52:00,43.0,10.0,30.00,WNW,283,5.0,7.0,26,0.00,,,0.00,,2013-02-01 23:52:00,
2013-02-01 17:02:00,42.0,10.0,30.00,West,262,3.0,11.0,27,0.00,,,0.00,,2013-02-02 00:02:00,
2013-02-01 17:11:00,42.0,10.0,30.00,West,262,3.0,11.0,27,0.00,,,0.00,,2013-02-02 00:11:00,
2013-02-01 17:21:00,42.0,10.0,30.00,West,275,4.0,12.0,27,0.00,,,0.00,,2013-02-02 00:21:00,
2013-02-01 17:32:00,41.0,10.0,30.01,WNW,283,4.0,7.0,27,0.00,,,0.00,,2013-02-02 00:32:00,
2013-02-01 17:42:00,41.0,10.0,30.01,WNW,283,4.0,7.0,27,0.00,,,0.00,,2013-02-02 00:42:00,
2013-02-01 17:52:00,41.0,10.0,30.02,WNW,292,5.0,9.0,27,0.00,,,0.00,,2013-02-02 00:52:00,
2013-02-01 18:02:00,40.0,10.0,30.03,NW,318,0.0,6.0,29,0.00,,,0.00,,2013-02-02 01:02:00,
2013-02-01 18:11:00,40.0,10.0,30.03,NW,318,0.0,6.0,29,0.00,,,0.00,,2013-02-02 01:11:00,
2013-02-01 18:21:00,38.0,10.0,30.05,NW,318,0.0,1.0,31,0.00,,,0.00,,2013-02-02 01:21:00,
2013-02-01 18:32:00,36.0,15.0,30.06,NE,46,0.0,6.0,41,0.00,,,0.00,,2013-02-02 01:32:00,
2013-02-01 18:41:00,36.0,15.0,30.06,NE,46,0.0,6.0,41,0.00,,,0.00,,2013-02-02 01:41:00,
2013-02-01 18:52:00,36.0,15.0,30.06,NE,46,2.0,2.0,42,0.00,,,0.00,,2013-02-02 01:52:00,
2013-02-01 19:01:00,35.0,15.0,30.07,NE,46,1.0,5.0,43,0.00,,,0.00,,2013-02-02 02:01:00,
2013-02-01 19:11:00,35.0,15.0,30.07,NE,46,1.0,5.0,43,0.00,,,0.00,,2013-02-02 02:11:00,
2013-02-01 19:21:00,36.0,16.0,30.07,NNE,18,0.0,5.0,44,0.00,,,0.00,,2013-02-02 02:21:00,
2013-02-01 19:32:00,36.0,17.0,30.07,NNE,21,0.0,4.0,46,0.00,,,0.00,,2013-02-02 02:32:00,
2013-02-01 19:42:00,36.0,17.0,30.07,NNE,21,0.0,4.0,46,0.00,,,0.00,,2013-02-02 02:42:00,
2013-02-01 19:52:00,35.0,17.0,30.07,NNE,21,0.0,6.0,48,0.00,,,0.00,,2013-02-02 02:52:00,
2013-02-01 20:02:00,34.0,17.0,30.07,North,4,2.0,2.0,50,0.00,,,0.00,,2013-02-02 03:02:00,
2013-02-01 20:11:00,34.0,17.0,30.07,North,4,2.0,2.0,50,0.00,,,0.00,,2013-02-02 03:11:00,
2013-02-01 20:21:00,36.0,18.0,30.07,North,9,0.0,9.0,47,0.00,,,0.00,,2013-02-02 03:21:00,
2013-02-01 20:32:00,36.0,18.0,30.07,NNE,23,0.0,4.0,47,0.00,,,0.00,,2013-02-02 03:32:00,
2013-02-01 20:42:00,35.0,17.0,30.07,NE,42,3.0,5.0,48,0.00,,,0.00,,2013-02-02 03:42:00,
2013-02-01 20:52:00,35.0,17.0,30.07,NE,42,3.0,5.0,48,0.00,,,0.00,,2013-02-02 03:52:00,
2013-02-01 21:01:00,35.0,17.0,30.07,NE,46,4.0,6.0,47,0.00,,,0.00,,2013-02-02 04:01:00,
2013-02-01 21:11:00,35.0,17.0,30.07,NE,46,4.0,6.0,47,0.00,,,0.00,,2013-02-02 04:11:00,
2013-02-01 21:21:00,35.0,16.0,30.08,NE,46,1.0,7.0,46,0.00,,,0.00,,2013-02-02 04:21:00,
2013-02-01 21:32:00,32.0,15.0,30.08,NE,47,0.0,3.0,49,0.00,,,0.00,,2013-02-02 04:32:00,
2013-02-01 21:42:00,32.0,15.0,30.08,NE,47,0.0,3.0,49,0.00,,,0.00,,2013-02-02 04:42:00,
2013-02-01 21:52:00,32.0,15.0,30.09,ENE,61,0.0,11.0,49,0.00,,,0.00,,2013-02-02 04:52:00,
2013-02-01 22:03:00,33.0,16.0,30.09,SE,132,1.0,5.0,49,0.00,,,0.00,,2013-02-02 05:03:00,
2013-02-01 22:12:00,33.0,16.0,30.09,SE,132,1.0,5.0,49,0.00,,,0.00,,2013-02-02 05:12:00,
2013-02-01 22:22:00,32.0,15.0,30.10,South,179,1.0,6.0,50,0.00,,,0.00,,2013-02-02 05:22:00,
2013-02-01 22:33:00,32.0,18.0,30.10,South,179,0.0,3.0,55,0.00,,,0.00,,2013-02-02 05:33:00,
2013-02-01 22:41:00,32.0,18.0,30.10,South,179,0.0,3.0,55,0.00,,,0.00,,2013-02-02 05:41:00,
2013-02-01 22:52:00,32.0,17.0,30.10,South,179,1.0,3.0,53,0.00,,,0.00,,2013-02-02 05:52:00,
2013-02-01 23:02:00,34.0,16.0,30.10,ESE,118,1.0,13.0,48,0.00,,,0.00,,2013-02-02 06:02:00,
2013-02-01 23:12:00,34.0,16.0,30.10,ESE,118,1.0,13.0,48,0.00,,,0.00,,2013-02-02 06:12:00,
2013-02-01 23:22:00,33.0,17.0,30.10,South,188,2.0,7.0,52,0.00,,,0.00,,2013-02-02 06:22:00,
2013-02-01 23:31:00,33.0,16.0,30.11,ESE,115,3.0,9.0,50,0.00,,,0.00,,2013-02-02 06:31:00,
2013-02-01 23:41:00,33.0,16.0,30.11,ESE,115,3.0,9.0,50,0.00,,,0.00,,2013-02-02 06:41:00,
2013-02-01 23:52:00,32.0,16.0,30.12,SW,228,2.0,7.0,51,0.00,,,0.00,,2013-02-02 06:52:00,